Weather History for K4A9 - November, 2012

Change the Weather History Date:

Monday, November 5, 2012

  Actual Average (KRMG) Record (KRMG)
Temperature  
Mean Temperature 44 °F 54 °F  
Max Temperature 59 °F 67 °F 81 °F (2003)
Min Temperature 30 °F 42 °F 28 °F (1999)
Degree Days  
Heating Degree Days 20 11  
Month to date heating degree days 52  
Since 1 July heating degree days 229  
Moisture  
Dew Point 34 °F    
Average Humidity 70    
Maximum Humidity 100    
Minimum Humidity 31    
Precipitation  
Precipitation 0.06 in 0.14 in 1.53 in (2002)
Month to date precipitation 0.66  
Year to date precipitation 43.35  
Sea Level Pressure  
Sea Level Pressure 30.04 in    
Wind  
Wind Speed 1 mph (NE)    
Max Wind Speed 7 mph    
Max Gust Speed -    
Visibility 8 miles    
Events Fog , Rain    
T = Trace of Precipitation, MM = Missing Value Source: NWS Daily Summary

Daily Weather History Graph

Daily Weather History Graph

Search for Another Location

Airport or City:

Trip Planner

Search our weather history database for the weather conditions in past years. The results will help you decide how hot, cold, wet, or windy it might be!

Date:

Astronomy

Nov. 05, 2012 Rise Set
Actual Time 6:07 AM CST 4:45 PM CST
Civil Twilight 5:41 AM CST 5:11 PM CST
Nautical Twilight 5:11 AM CST 5:41 PM CST
Astronomical Twilight 4:41 AM CST 6:10 PM CST
Moon 10:21 PM CST (11/5) 11:25 AM CST (11/5)
Length of Visible Light 11h 30m
Length of Day
10h 38m
Waning Gibbous, 62% of the Moon is Illuminated
Nov 5
Waning Gibbous
Nov 6
Last Quarter
Nov 13
New
Nov 20
First Quarter
Nov 28
Full

Hourly Weather History & Observations

Time (CST) Temp. Windchill Dew Point Humidity Pressure Visibility Wind Dir Wind Speed Gust Speed Precip Events Conditions
12:15 AM 33.8 °F - 32.0 °F 93% 30.10 in 5.0 mi Calm Calm - N/A   Clear
12:35 AM 33.8 °F - 32.0 °F 93% 30.10 in 4.0 mi Calm Calm - N/A   Clear
12:55 AM 33.8 °F - 32.0 °F 93% 30.10 in 7.0 mi Calm Calm - N/A   Clear
1:15 AM 33.8 °F - 32.0 °F 93% 30.10 in 7.0 mi Calm Calm - N/A   Clear
1:35 AM 32.0 °F - 32.0 °F 100% 30.10 in 5.0 mi Calm Calm - N/A   Clear
1:55 AM 32.0 °F - 32.0 °F 100% 30.09 in 5.0 mi Calm Calm - N/A   Clear
2:15 AM 32.0 °F - 32.0 °F 100% 30.10 in 5.0 mi Calm Calm - N/A   Clear
2:35 AM 32.0 °F - 32.0 °F 100% 30.10 in 5.0 mi Calm Calm - N/A   Clear
2:55 AM 32.0 °F - 32.0 °F 100% 30.09 in 3.0 mi Calm Calm - N/A   Clear
3:15 AM 32.0 °F - 32.0 °F 100% 30.09 in 2.0 mi Calm Calm - N/A   Clear
3:35 AM 32.0 °F - 32.0 °F 100% 30.09 in 2.5 mi Calm Calm - N/A   Clear
3:55 AM 32.0 °F - 30.2 °F 93% 30.10 in 3.0 mi Calm Calm - N/A   Clear
4:15 AM 32.0 °F - 30.2 °F 93% 30.10 in 4.0 mi Calm Calm - N/A   Clear
4:35 AM 32.0 °F - 30.2 °F 93% 30.11 in 5.0 mi Calm Calm - N/A   Clear
4:55 AM 32.0 °F - 30.2 °F 93% 30.12 in 5.0 mi Calm Calm - N/A   Clear
5:15 AM 32.0 °F - 30.2 °F 93% 30.12 in 5.0 mi Calm Calm - N/A   Clear
5:35 AM 30.2 °F - 28.4 °F 93% 30.12 in 1.2 mi Calm Calm - N/A   Mist
6:15 AM 30.2 °F 26.7 °F 28.4 °F 93% 30.11 in 0.5 mi NNE 3.5 mph - N/A Fog Light Freezing Fog
6:35 AM 30.2 °F - 28.4 °F 93% 30.11 in 0.2 mi Calm Calm - N/A Fog Light Freezing Fog
6:55 AM 32.0 °F - 32.0 °F 100% 30.12 in 0.5 mi Calm Calm - N/A Fog Fog
7:15 AM 33.8 °F - 32.0 °F 93% 30.11 in 2.5 mi Calm Calm - N/A   Clear
7:35 AM 35.6 °F - 33.8 °F 93% 30.11 in 5.0 mi Calm Calm - N/A   Clear
7:55 AM 37.4 °F - 35.6 °F 93% 30.12 in 5.0 mi Calm Calm - N/A   Clear
8:15 AM 42.8 °F - 41.0 °F 93% 30.11 in 10.0 mi Calm Calm - N/A   Clear
8:35 AM 42.8 °F 40.1 °F 37.4 °F 81% 30.11 in 10.0 mi NE 4.6 mph - N/A   Clear
8:55 AM 44.6 °F 41.4 °F 35.6 °F 71% 30.10 in 10.0 mi NNE 5.8 mph - N/A   Clear
9:15 AM 46.4 °F 42.9 °F 35.6 °F 66% 30.10 in 10.0 mi NE 6.9 mph - N/A   Clear
9:35 AM 50.0 °F - 35.6 °F 58% 30.09 in 10.0 mi NE 6.9 mph - N/A   Clear
9:55 AM 50.0 °F - 35.6 °F 58% 30.09 in 10.0 mi NNE 4.6 mph - N/A   Clear
10:15 AM 51.8 °F - 35.6 °F 54% 30.09 in 10.0 mi NNE 3.5 mph - N/A   Clear
10:35 AM 53.6 °F - 33.8 °F 47% 30.08 in 10.0 mi North 4.6 mph - N/A   Clear
10:55 AM 53.6 °F - 32.0 °F 44% 30.07 in 10.0 mi NE 4.6 mph - N/A   Clear
11:15 AM 55.4 °F - 32.0 °F 41% 30.05 in 10.0 mi NNE 4.6 mph - N/A   Clear
11:35 AM 55.4 °F - 30.2 °F 38% 30.05 in 10.0 mi North 3.5 mph - N/A   Clear
11:55 AM 57.2 °F - 30.2 °F 36% 30.04 in 10.0 mi North 3.5 mph - N/A   Clear
12:15 PM 57.2 °F - 32.0 °F 38% 30.02 in 10.0 mi Calm Calm - N/A   Clear
12:35 PM 59.0 °F - 32.0 °F 36% 30.00 in 10.0 mi NE 3.5 mph - N/A   Clear
12:55 PM 59.0 °F - 32.0 °F 36% 30.00 in 10.0 mi Calm Calm - N/A   Clear
1:15 PM 59.0 °F - 30.2 °F 34% 29.99 in 10.0 mi ESE 5.8 mph - N/A   Clear
1:35 PM 59.0 °F - 28.4 °F 31% 29.99 in 10.0 mi SE 6.9 mph - N/A   Clear
1:55 PM 57.2 °F - 28.4 °F 33% 29.99 in 10.0 mi SE 4.6 mph - N/A   Mostly Cloudy
2:15 PM 57.2 °F - 28.4 °F 33% 29.98 in 10.0 mi ESE 4.6 mph - N/A   Overcast
2:35 PM 57.2 °F - 30.2 °F 36% 29.98 in 10.0 mi ESE 4.6 mph - N/A   Mostly Cloudy
2:55 PM 57.2 °F - 30.2 °F 36% 29.98 in 10.0 mi SE 3.5 mph - N/A   Scattered Clouds
3:15 PM 59.0 °F - 30.2 °F 34% 29.99 in 10.0 mi Calm Calm - N/A   Clear
3:35 PM 55.4 °F - 32.0 °F 41% 29.99 in 10.0 mi Calm Calm - N/A   Scattered Clouds
3:55 PM 55.4 °F - 32.0 °F 41% 29.99 in 10.0 mi Calm Calm - N/A   Mostly Cloudy
4:15 PM 55.4 °F - 32.0 °F 41% 29.99 in 10.0 mi Calm Calm - N/A   Mostly Cloudy
4:35 PM 53.6 °F - 33.8 °F 47% 29.99 in 10.0 mi Calm Calm - N/A   Overcast
4:55 PM 53.6 °F - 33.8 °F 47% 29.99 in 10.0 mi Calm Calm - N/A   Mostly Cloudy
5:15 PM 51.8 °F - 35.6 °F 54% 29.99 in 10.0 mi Calm Calm - N/A   Scattered Clouds
5:35 PM 50.0 °F - 37.4 °F 62% 29.99 in 10.0 mi Calm Calm - N/A   Overcast
5:55 PM 50.0 °F - 37.4 °F 62% 29.99 in 10.0 mi Calm Calm - N/A   Overcast
6:15 PM 50.0 °F - 37.4 °F 62% 29.98 in 10.0 mi Calm Calm - N/A   Overcast
6:35 PM 50.0 °F - 37.4 °F 62% 29.97 in 10.0 mi NE 5.8 mph - N/A   Overcast
6:55 PM 50.0 °F - 39.2 °F 66% 29.97 in 10.0 mi NNE 5.8 mph - N/A   Overcast
7:15 PM 50.0 °F - 37.4 °F 62% 29.97 in 10.0 mi Calm Calm - N/A   Overcast
7:35 PM 51.8 °F - 37.4 °F 58% 30.00 in 10.0 mi WSW 4.6 mph - N/A   Overcast
7:55 PM 50.0 °F - 37.4 °F 62% 30.00 in 10.0 mi Calm Calm - N/A   Overcast
8:15 PM 50.0 °F - 37.4 °F 62% 30.01 in 10.0 mi Calm Calm - N/A Rain Light Rain
8:35 PM 50.0 °F - 41.0 °F 71% 30.00 in 10.0 mi Calm Calm - N/A   Overcast
8:55 PM 50.0 °F - 41.0 °F 71% 30.00 in 10.0 mi Calm Calm - N/A Rain Light Rain
9:15 PM 48.2 °F - 41.0 °F 76% 29.99 in 10.0 mi North 3.5 mph - N/A Rain Light Rain
9:35 PM 46.4 °F 44.3 °F 42.8 °F 87% 29.98 in 10.0 mi North 4.6 mph - N/A Rain Light Rain
9:55 PM 46.4 °F 45.2 °F 42.8 °F 87% 29.97 in 10.0 mi NE 3.5 mph - N/A Rain Light Rain
10:15 PM 46.4 °F 45.2 °F 42.8 °F 87% 29.96 in 10.0 mi NE 3.5 mph - N/A Rain Light Rain
10:35 PM 46.4 °F 44.3 °F 42.8 °F 87% 29.96 in 10.0 mi NNE 4.6 mph - N/A Rain Light Rain
10:55 PM 46.4 °F 45.2 °F 42.8 °F 87% 29.96 in 7.0 mi ENE 3.5 mph - 0.02 in Rain Light Rain
11:15 PM 46.4 °F 45.2 °F 42.8 °F 87% 29.96 in 10.0 mi NE 3.5 mph - 0.01 in Rain Light Rain
11:35 PM 46.4 °F - 42.8 °F 87% 29.97 in 7.0 mi Calm Calm - 0.02 in Rain Light Rain
11:55 PM 46.4 °F - 42.8 °F 87% 29.98 in 7.0 mi Calm Calm - 0.04 in Rain Rain